Weather in Privol'nyy

Russia / Volgograd Oblast     48°09′21″N   44°06′51″E
temp.,
°C
wind,
m/s
gust,
m/s
humid.,
%
clouds,
%
prec.,
mm/h
press.,
hPa
HPBL,
m
18 may, tue
tue1800:00+19e5113452 0.0 1008153
03:00+17e493513 0.0 1007121
06:00+18ese344093 0.0 100771
09:00+22wsw223986 0.0 1007423
12:00+25wsw3241100 0.0 10071352
15:00+22sw4561100 0.2 1009959
18:00+18w677630 1.3 1010574
21:00+15w48885 1.3 1010207
19 may, wed
wed1900:00+14wnw35924 0.0 101085
03:00+14wnw22925 0.0 101025
06:00+16nnw22825 0.0 100993
09:00+21n2157100 0.0 1009601
12:00+23ssw1242100 0.0 10081064
15:00+24sw111046100 0.0 10101581
18:00+16wsw81273100 0.4 1012677
21:00+15wsw51178100 0.4 1012533
20 may, thu
thu2000:00+13sw510853 0.0 1013397
03:00+11sw499344 0.0 1014312
06:00+13sw58844 0.0 1014433
09:00+17sw686521 0.0 10141037
12:00+21sw8104790 0.0 10142037
15:00+21sw894846 0.0 10141828
18:00+20wsw585626 0.0 10151686
21:00+16sw35658 0.0 101562
21 may, fri
fri2100:00+14w227516 0.0 101515
03:00+14ese227595 0.0 101611
06:00+16se3770100 0.0 1016177
09:00+22se674767 0.0 1016673
12:00+26se673666 0.0 10161553
15:00+28se79290 0.0 10141814
18:00+27ese6113620 0.0 1013420
21:00+21ese5135078 0.0 1014273
22 may, sat
sat2200:00+19se516455 0.0 1014383
03:00+18ese617425 0.0 1013365
06:00+19ese81947100 0.0 1013479
09:00+25se10163515 0.0 1012852
12:00+31se101426100 0.0 10111765
15:00+33sse10132479 0.0 10102208
18:00+30sse61130100 0.0 1011319
21:00+24ese463923 0.0 101380